Location: Aragüita
(10.0436°N, 67.8028°W)
Time: 21:28:30
(UTC+00:00)

Meteor 1-21 - Pass Details

Date: 14 April 2024
Orbit: 843 x 886 km, 81.2° (Epoch: 27 April)

Event Time Altitude Azimuth Distance (km) Brightness Sun altitude
Rises 09:59:41 0° 188° (S) 3,438 7.2 -6.0°
Maximum altitude 10:07:47 77° 275° (W) 877 4.2 -4.0°
Drops below altitude 10° 10:13:22 10° 1° (N) 2,467 6.8 -2.7°
Sets 10:15:47 0° 3° (N) 3,397 7.5 -2.1°
